• In Belarus
  • List of Countries
  • For 7 days
  • Water Temperature
  • Satellite Maps
  • Weather Map
  • Weather Widgets
  • user-avatar
    Login

    Hourly Weather Adamovichi

    Today, 23 March, Saturday

    Time Temperature Precipitation Wind Pressure Humidity
    00:00 +3°C° 0 mm 2 mps 758 mmHg 62%
    01:00 +2°C° 0 mm 2 mps 758 mmHg 63%
    02:00 +2°C° 0 mm 2 mps 758 mmHg 65%
    03:00 +2°C° 0 mm 1 mps 758 mmHg 65%
    04:00 +2°C° 0 mm 1 mps 758 mmHg 65%
    05:00 +1°C° 0 mm 0 mps 758 mmHg 65%
    06:00 +1°C° 0 mm 0 mps 758 mmHg 61%
    07:00 +3°C° 0 mm 1 mps 757 mmHg 57%
    08:00 +4°C° 0 mm 1 mps 757 mmHg 53%
    09:00 +6°C° 0 mm 1 mps 757 mmHg 47%
    10:00 +6°C° 0 mm 2 mps 757 mmHg 40%
    11:00 +8°C° 0 mm 3 mps 756 mmHg 34%
    12:00 +9°C° 0 mm 3 mps 756 mmHg 33%
    13:00 +10°C° 0 mm 4 mps 755 mmHg 32%
    14:00 +11°C° 0 mm 4 mps 755 mmHg 30%
    15:00 +11°C° 0 mm 4 mps 754 mmHg 33%
    16:00 +11°C° 0 mm 4 mps 754 mmHg 36%
    17:00 +11°C° 0 mm 4 mps 753 mmHg 38%
    18:00 +10°C° 0 mm 4 mps 753 mmHg 45%
    19:00 +9°C° 0 mm 3 mps 752 mmHg 52%
    20:00 +8°C° 0 mm 3 mps 752 mmHg 58%
    21:00 +8°C° 0.1 mm 3 mps 752 mmHg 64%
    22:00 +7°C° 0.1 mm 4 mps 752 mmHg 70%
    23:00 +8°C° 0.1 mm 4 mps 752 mmHg 77%

    Tomorrow, 24 March, Sunday

    Time Temperature Precipitation Wind Pressure Humidity
    00:00 +7°C° 0 mm 4 mps 752 mmHg 79%
    01:00 +6°C° 0 mm 5 mps 752 mmHg 81%
    02:00 +6°C° 0 mm 5 mps 752 mmHg 83%
    03:00 +5°C° 0 mm 5 mps 752 mmHg 85%
    04:00 +3°C° 0 mm 4 mps 752 mmHg 88%
    05:00 +2°C° 0 mm 3 mps 752 mmHg 91%
    06:00 +1°C° 0 mm 4 mps 752 mmHg 85%
    07:00 +1°C° 0 mm 4 mps 752 mmHg 80%
    08:00 +1°C° 0 mm 4 mps 752 mmHg 75%
    09:00 +4°C° 0 mm 4 mps 752 mmHg 67%
    10:00 +5°C° 0 mm 4 mps 752 mmHg 59%
    11:00 +6°C° 0 mm 4 mps 752 mmHg 51%
    12:00 +6°C° 0 mm 4 mps 752 mmHg 49%
    13:00 +7°C° 0 mm 4 mps 752 mmHg 47%
    14:00 +7°C° 0 mm 4 mps 751 mmHg 45%
    15:00 +7°C° 0 mm 4 mps 751 mmHg 47%
    16:00 +7°C° 0 mm 4 mps 751 mmHg 48%
    17:00 +6°C° 0 mm 4 mps 750 mmHg 50%
    18:00 +5°C° 0 mm 4 mps 750 mmHg 54%
    19:00 +4°C° 0 mm 3 mps 750 mmHg 58%
    20:00 +4°C° 0 mm 2 mps 750 mmHg 63%
    21:00 +4°C° 0 mm 2 mps 750 mmHg 66%
    22:00 +3°C° 0 mm 2 mps 749 mmHg 69%
    23:00 +2°C° 0 mm 2 mps 749 mmHg 73%

    Day after tomorrow, 25 March, Monday

    Time Temperature Precipitation Wind Pressure Humidity
    00:00 +2°C° 0 mm 2 mps 749 mmHg 74%
    01:00 +1°C° 0 mm 3 mps 749 mmHg 75%
    02:00 0°C° 0 mm 3 mps 748 mmHg 76%
    03:00 0°C° 0 mm 3 mps 748 mmHg 76%
    04:00 +1°C° 0 mm 3 mps 747 mmHg 77%
    05:00 +1°C° 0 mm 3 mps 747 mmHg 77%
    06:00 +1°C° 0 mm 3 mps 746 mmHg 76%
    07:00 0°C° 0 mm 4 mps 746 mmHg 75%
    08:00 0°C° 0 mm 4 mps 746 mmHg 73%
    09:00 +1°C° 0 mm 4 mps 745 mmHg 69%
    10:00 +2°C° 0 mm 5 mps 745 mmHg 65%
    11:00 +5°C° 0 mm 5 mps 744 mmHg 61%
    12:00 +5°C° 0.2 mm 5 mps 744 mmHg 57%
    13:00 +5°C° 0.2 mm 6 mps 743 mmHg 53%
    14:00 +7°C° 0.2 mm 6 mps 743 mmHg 49%
    15:00 +6°C° 0.3 mm 5 mps 743 mmHg 55%
    16:00 +5°C° 0.3 mm 5 mps 742 mmHg 62%
    17:00 +4°C° 0.3 mm 4 mps 742 mmHg 68%
    18:00 +3°C° 0 mm 3 mps 742 mmHg 73%
    19:00 +2°C° 0 mm 3 mps 742 mmHg 77%
    20:00 +2°C° 0 mm 2 mps 742 mmHg 81%
    21:00 +2°C° 0 mm 2 mps 743 mmHg 83%
    22:00 +1°C° 0 mm 2 mps 743 mmHg 85%
    23:00 +1°C° 0 mm 2 mps 744 mmHg 88%

    26 March, Tuesday

    Time Temperature Precipitation Wind Pressure Humidity
    00:00 +1°C° 0 mm 2 mps 744 mmHg 90%
    01:00 -1°C° 0 mm 2 mps 745 mmHg 92%
    02:00 -1°C° 0 mm 2 mps 745 mmHg 94%
    03:00 -1°C° 0 mm 3 mps 746 mmHg 94%
    04:00 -1°C° 0 mm 3 mps 746 mmHg 94%
    05:00 -2°C° 0 mm 4 mps 747 mmHg 95%
    06:00 -2°C° 0 mm 4 mps 748 mmHg 90%
    07:00 -1°C° 0 mm 5 mps 749 mmHg 86%
    08:00 -1°C° 0 mm 6 mps 750 mmHg 81%
    09:00 +1°C° 0 mm 6 mps 750 mmHg 72%
    10:00 +1°C° 0 mm 6 mps 751 mmHg 62%
    11:00 +2°C° 0 mm 5 mps 751 mmHg 53%
    12:00 +3°C° 0 mm 6 mps 751 mmHg 48%
    13:00 +3°C° 0 mm 6 mps 751 mmHg 43%
    14:00 +4°C° 0 mm 6 mps 751 mmHg 39%
    15:00 +4°C° 0 mm 6 mps 751 mmHg 41%
    16:00 +4°C° 0 mm 6 mps 751 mmHg 44%
    17:00 +3°C° 0 mm 6 mps 750 mmHg 47%
    18:00 +2°C° 0 mm 5 mps 750 mmHg 52%
    19:00 +1°C° 0 mm 4 mps 750 mmHg 58%
    20:00 +1°C° 0 mm 3 mps 750 mmHg 64%
    21:00 0°C° 0 mm 3 mps 751 mmHg 67%
    22:00 0°C° 0 mm 3 mps 751 mmHg 70%
    23:00 +1°C° 0 mm 2 mps 751 mmHg 74%

    27 March, Wednesday

    Time Temperature Precipitation Wind Pressure Humidity
    00:00 -1°C° 0 mm 2 mps 751 mmHg 81%
    01:00 -1°C° 0 mm 2 mps 751 mmHg 88%
    02:00 -1°C° 0 mm 2 mps 751 mmHg 95%
    03:00 -2°C° 0 mm 2 mps 751 mmHg 95%
    04:00 -2°C° 0 mm 2 mps 752 mmHg 95%
    05:00 -3°C° 0 mm 2 mps 752 mmHg 96%
    06:00 -2°C° 0 mm 2 mps 752 mmHg 89%
    07:00 +1°C° 0 mm 1 mps 753 mmHg 82%
    08:00 +1°C° 0 mm 1 mps 753 mmHg 76%
    09:00 +3°C° 0 mm 1 mps 753 mmHg 67%
    10:00 +4°C° 0 mm 1 mps 754 mmHg 57%
    11:00 +5°C° 0 mm 2 mps 754 mmHg 48%
    12:00 +6°C° 0 mm 2 mps 754 mmHg 47%
    13:00 +7°C° 0 mm 2 mps 754 mmHg 46%
    14:00 +8°C° 0 mm 2 mps 754 mmHg 44%
    15:00 +8°C° 0 mm 2 mps 754 mmHg 46%
    16:00 +8°C° 0 mm 2 mps 754 mmHg 47%
    17:00 +8°C° 0 mm 2 mps 754 mmHg 48%
    18:00 +7°C° 0 mm 2 mps 755 mmHg 56%
    19:00 +6°C° 0 mm 2 mps 755 mmHg 64%
    20:00 +5°C° 0 mm 2 mps 755 mmHg 72%
    21:00 +5°C° 0 mm 2 mps 756 mmHg 78%
    22:00 +5°C° 0 mm 2 mps 756 mmHg 83%
    23:00 +5°C° 0 mm 2 mps 756 mmHg 89%

    28 March, Thursday

    Time Temperature Precipitation Wind Pressure Humidity
    00:00 +5°C° 0 mm 2 mps 757 mmHg 91%
    01:00 +5°C° 0 mm 2 mps 757 mmHg 93%
    02:00 +4°C° 0 mm 2 mps 757 mmHg 95%
    03:00 +4°C° 0 mm 2 mps 758 mmHg 95%
    04:00 +4°C° 0 mm 2 mps 758 mmHg 96%
    05:00 +4°C° 0 mm 2 mps 758 mmHg 96%
    06:00 +4°C° 0 mm 2 mps 759 mmHg 93%
    07:00 +4°C° 0 mm 2 mps 759 mmHg 91%
    08:00 +5°C° 0 mm 2 mps 760 mmHg 88%
    09:00 +5°C° 0 mm 2 mps 760 mmHg 83%
    10:00 +6°C° 0 mm 2 mps 761 mmHg 77%
    11:00 +6°C° 0 mm 2 mps 761 mmHg 72%
    12:00 +7°C° 0 mm 2 mps 761 mmHg 68%
    13:00 +8°C° 0 mm 2 mps 761 mmHg 65%
    14:00 +8°C° 0 mm 2 mps 761 mmHg 62%
    15:00 +9°C° 0 mm 2 mps 761 mmHg 60%
    16:00 +9°C° 0 mm 2 mps 761 mmHg 58%
    17:00 +9°C° 0 mm 2 mps 761 mmHg 56%
    18:00 +9°C° 0 mm 1 mps 762 mmHg 62%
    19:00 +8°C° 0 mm 1 mps 762 mmHg 68%
    20:00 +7°C° 0 mm 1 mps 762 mmHg 74%
    21:00 +6°C° 0 mm 1 mps 762 mmHg 76%
    22:00 +6°C° 0 mm 1 mps 762 mmHg 78%
    23:00 +5°C° 0 mm 1 mps 763 mmHg 80%
    Show more